www.pogodaiklimat.ru

Погода и климат >> Архив погоды >> Индия >> Махараштра >> Вардха


ПОГОДА в Вардхе

  • Прогноз погоды в Вардхе
  • Монитор погоды в Вардхе

АРХИВ ПОГОДЫ в Вардхе

Время (UTC), дата Ветер
(напр.,м/с)
 
Видим.   Явления Облачность Т
(С)
Тd
(С)
f
(%)
Тe
(С)
Тes
(С)
Комфортность P
(гПа)
Po
(гПа)
Тmin
(С)
Tmax
(С)
R
(мм)
R24
(мм)
S
(см)
09 12.07 З 2 4000 м 9/0
[Ac trans Ci ing]
+34.0 +25.4 61 +48 +58 опасность
перегрева
990.9 960.2
12 12.07 З 3 4000 м 10/0 600 м
[Ac trans Ci ing]
+34.8 +21.6 46 +43 +44 опасность
перегрева
1001.7 970.7 +35.2
03 13.07 З 2 2000 м 1/0
[Ci fib]
+28.8 +23.6 74 +39 +48 очень
душно
1006.0 974.3 +26.5
06 13.07 З 3 4000 м 4/0
[Ac trans]
+33.0 +22.2 53 +42 +57 опасность
перегрева
1005.6 974.3
09 13.07 З 3 4000 м 6/0
[Ac trans Ci fib]
+36.6 +21.0 40 +43 +52 опасность
перегрева
1004.7 973.8
12 13.07 З 2 4000 м 10/0 600 м
[Ac trans Ci ing]
+35.5 +21.7 45 +44 +45 опасность
перегрева
1002.4 971.5 +36.5
03 14.07 З 3 2000 м 5/0
[Ci]
+29.4 +22.0 64 +38 +45 очень
душно
1005.7 974.1 +27.4
09 14.07 З 2 4000 м 5/0
[Ac trans]
+36.8 +21.6 41 +44 +56 опасность
перегрева
1003.3 972.5
12 14.07 З 1 4000 м 4/0
[Ac trans]
+34.4 +22.2 49 +43 +45 опасность
перегрева
1001.5 970.5 +36.5
03 15.07 З 2 2000 м 1/0
[Ac trans]
+28.0 +22.1 70 +36 +45 очень
душно
1004.2 972.5 +26.4 1
06 15.07 З 2 2000 м 1/0
[Ac trans]
+28.0 +22.1 70 +36 +58 опасность
солнечного
удара
1004.2 972.5 +26.4 1
09 15.07 З 4 10 км 5/0
[Ac trans]
+35.2 +21.4 45 +43 +50 опасность
перегрева
1001.0 970.1
12 15.07 З 4 10 км 4/0
[Ac trans]
+35.8 +19.6 39 +41 +42 опасность
перегрева
999.2 968.4 +36.5
03 16.07 З 1 4000 м 1/0
[Ac trans]
+24.0 +21.8 88 +31 +40 очень
душно
1005.6 973.4 +27.4
06 16.07 З 3 4000 м 1/0
[Ac trans]
+34.0 +21.3 48 +42 +60 опасность
перегрева
1004.6 973.5
09 16.07 З 3 10 км 4/0
[Ac trans]
+36.0 +20.2 40 +42 +52 опасность
перегрева
1002.3 971.4
12 16.07 З 4 10 км 3/0
[Ac trans]
+37.2 +20.7 38 +43 +45 опасность
перегрева
1000.1 969.4 +37.5
03 17.07 З 2 2000 м 1/0
[Ac trans]
+29.9 +21.8 62 +38 +46 очень
душно
1005.4 973.8 +26.5
06 17.07 З 2 4000 м 3/0
[Ac trans]
+34.5 +22.5 50 +44 +61 опасность
перегрева
1003.5 972.4
09 17.07 З 2 4000 м 5/0
[Ac trans]
+37.0 +20.8 39 +44 +56 опасность
перегрева
1001.1 970.4
12 17.07 З 1 10 км 3/0
[Ac trans]
+37.8 +20.7 37 +44 +46 опасность
перегрева
998.6 968.0 +38.2
03 18.07 З 1 2000 м ясно +31.0 +21.9 58 +39 +49 очень
душно
1002.2 970.8 +27.0
06 18.07 С 1 4000 м 1/0
[Ac trans]
+36.0 +21.7 44 +44 +70 опасность
перегрева
1002.0 971.1
09 18.07 З 1 10 км 4/0
[Ac trans]
+38.6 +21.0 36 +45 +59 опасность
перегрева
999.7 969.2
12 18.07 З 1 4000 м 4/0
[Ac trans]
+39.0 +21.4 36 +46 +48 опасность
перегрева
997.4 967.0 +40.0
03 19.07 З 1 2000 м 10/4 600 м
[Sc Ac trans]
+26.8 +24.8 89 +38 +41 очень
душно
1002.8 971.0 +24.9 5
06 19.07 З 2 4000 м 10/4 600 м
[Sc Ac trans]
+26.4 +24.7 90 +37 +43 очень
душно
1003.1 971.2 8

 

Местоположение метеостанции Вардха (Махараштра, Индия): широта 20.67 долгота 78.58 высота над уровнем моря 283 м.

В архиве по умолчанию представлена погода в Вардхе за последнюю неделю. Архивные данные за месяц целиком и за предыдущие месяцы, начиная с января 2011 года, Вы можете получить, выбрав интересующий диапазон дат из раскрывающегося списка и нажав кнопку "Ввод!".


*Определитесь, кто Вы:
робот инопланетянин человек

Внимание! Время в таблицах - всемирное. Для получения местного времени необходимо прибавить поправку, которая равна 5.5 ч.

Смотрите также архив погоды в соседних городах и на ближайших метеорологических станциях:

Погода в Яватмале (Махараштра, Индия) (54 км)
Погода в Нагпуре (Махараштра, Индия) (68 км)
Погода в Амравати (Махараштра, Индия) (88 км)
Погода в Чандрапуре (Махараштра, Индия) (108 км)
Погода в Адилабаде (Телингана, Индия) (114 км)
Погода в Брамапури (Махараштра, Индия) (132 км)
Погода в Бетуле (Мадхья-Прадеш, Индия) (150 км)
Погода в Аколе (Махараштра, Индия) (161 км)
Погода в Вашиме (Махараштра, Индия) (163 км)
Погода в Чхиндваре (Мадхья-Прадеш, Индия) (165 км)

Пояснения к столбцам:

Ветер - указаны скорость ветра в м/с - средняя за 10 мин, порывы в срок и между сроками (в фигурных скобках) и направление, откуда дует ветер: С - северный, СВ - северо-восточный, В - восточный, ЮВ - юго-восточный, Ю - южный, ЮЗ - юго-западный, З - западный, СЗ - северо-западный.
Видимость - горизонтальная дальность видимости в метрах или километрах. При видимости от 1 до 10 км при отсутствии осадков обычно наблюдается дымка, при ухудшении видимости до 1 км и менее - туман. В сухую погоду видимость может ухудшаться дымом, пылью или мглою.
Явления - указаны атмосферные явления, наблюдавшиеся в срок или в последний час перед сроком; фигурными скобками обозначены явления, наблюдавшиеся между сроками (за 1-3 часа до срока); квадратными скобками обозначены град или гололедные отложения с указанием их диаметра в мм.
Облачность - указаны через наклонную черту общая и нижняя облачность в баллах и высота нижней границы облаков в метрах; квадратными скобками обозначены формы облаков: Ci - перистые, Cs - перисто-слоистые, Cc - перисто-кучевые, Ac - высококучевые, As - высокослоистые, Sc - слоисто-кучевые, Ns - слоисто-дождевые, Cu - кучевые, Cb - кучево-дождевые. Подробнее классификацию облаков см. в Атласе облаков (PDF).
T - Температура воздуха - температура, измеренная на высоте 2 м над землей.
Td - Температура точки росы - температура, при понижении до которой содержащийся в воздухе водяной пар достигнет насыщения.
f - Относительная влажность воздуха - влажноcть воздуха, измеренная на высоте 2 м над землей.
Te - Эффективная температура - температура, которую ощущает одетый по сезону человек в тени. Характеристика душности погоды. При расчете учитывается влияние влажности воздуха и скорости ветра на теплоощущения человека.
Tes - Эффективная температура на солнце - температура, которую ощущает человек, с поправкой на солнечный нагрев. Характеристика знойности погоды. Зависит от высоты солнца над горизонтом, облачности и скорости ветра. Ночью, в пасмурную погоду, а также при ветре 12 м/с и более поправка равна нулю.
P - Атмосферное давление - приведенное к уровню моря атмосферное давление.
Po - Атмосферное давление - измеренное на уровне метеостанции атмосферное давление.
Tmin - Минимальная температура - минимум температуры воздуха на высоте 2 м над землей.
Tmax - Максимальная температура - максимум температуры воздуха на высоте 2 м над землей.
R - Количество осадков - Количество выпавших осадков за период времени, мм. При наведении курсора мыши на число - период времени, за который выпало указанное количество осадков.
R24 - Количество осадков - Количество выпавших осадков за 24 часа, мм.
S - Снежный покров - Высота снежного покрова, см. При наведении курсора мыши на число - состояние снежного покрова и степень покрытия местности в баллах.